Location: Coopersdale
(40.3556°N, 78.9372°W)
Time: 03:40:01
(UTC+00:00)

Tiros 1 despin weight - Pass Details

Date: 19 January 2021
Orbit: 593 x 642 km, 48.2° (Epoch: 02 March)

Event Time Altitude Azimuth Distance (km) Brightness Sun altitude
Rises 04:34:08 0° 290° (WNW) 2,826 - -67.0°
Reaches altitude 10° 04:36:48 10° 276° (W) 1,921 - -67.3°
Maximum altitude 04:40:12 22° 225° (SW) 1,301 - -67.6°
Drops below altitude 10° 04:43:37 10° 174° (S) 1,918 - -67.9°
Sets 04:46:17 0° 159° (SSE) 2,821 - -68.2°
